RS-44 & BREEZE-KM R/B

Last updated on Fri Jul 11 2025 00:03:04 GMT+0000 (Coordinated Universal Time)

1 44909U 19096E 25191.51340307 .00000035 00000+0 99266-4 0 9995 2 44909 82.5196 206.7259 0216611 223.0317 135.3671 12.79741855258645
UTC large
Height (km)
Speed (km/s)
/
Latitude / Longitude
Inclination (degrees)
Orbital Period (minutes)
Azimuth
Elevation
Range (km)
Doppler Factor

Next 0 passes for location: London (51.5072 / 0.1276)

Sorry there are no passes over London.